Location: Brunnen
(48.6541°N, 10.9920°E)
Time: 21:05:06
(UTC+00:00)

ATLAS 3B CENTAUR R/B - Pass Details

Date: 01 June 2020
Orbit: 220 x 4357 km, 28.1° (Epoch: 09 July)

Event Time Altitude Azimuth Distance (km) Brightness Sun altitude
Rises 20:24:23 0° 242° (WSW) 7,084 7.1 -9.7°
Reaches altitude 10° 20:31:37 10° 230° (SW) 5,182 6.2 -10.4°
Maximum altitude 20:40:23 20° 191° (SSW) 3,150 4.8 -11.3°
Enters shadow 20:44:36 14° 157° (SSE) 2,897 4.3 -11.7°
